(244728) = 2003 RU5

Discovered at Crni Vrh on 2003-09-04 by Crni Vrh.

Orbit

Orbit type: Main Belt

Note: WebGL enabled browser required.

epoch2023-09-13.0
epoch JD2460200.5
perihelion date2021-07-25.98871
perihelion JD2459421.48871
argument of perihelion (°)168.77568
ascending node (°)209.68150
inclination (°)5.06531
eccentricity0.2471984
perihelion distance (AU)1.7580456
Tisserand w.r.t. Jupiter3.5
ΔV w.r.t. Earth (km/sec)8.4
semimajor axis (AU)2.3353371
mean anomaly (°)215.14102
mean daily motion (°/day)0.27617190
aphelion distance (AU)2.913
period (years)3.57
P-vector [x]0.94818409
P-vector [y]0.28424082
P-vector [z]0.14196513
Q-vector [x]-0.31469908
Q-vector [y]0.90168236
Q-vector [z]0.29653567
absolute magnitude16.86
phase slope0.15
uncertainty0
referenceMPEC 2024-A124
observations used542
oppositions14
arc length (days)7192
first opposition used2003
last opposition used2023
residual rms (arc-secs)0.65
perturbers coarse indicatorM-v
perturbers precise indicator003Ek
first observation date used2003-09-04.0
last observation date used2023-05-14.0
computer nameMPCLINUX
JD of orbit computation2456494.369075
perihelion JD uncertainty (days)5.9426E-05
argument of perihelion uncertainty (°)4.4953E-05
ascending node uncertainty (°)4.2374E-05
inclination uncertainty (°)6.8998E-06
eccentricity uncertainty 1.0300E-07
perihelion distance uncertainty (AU)2.5157E-07
Minimum Orbit Intersection Distances (in AU)
for orbit epoch: 2460200.5, reference: E2024-AC4
Mercury1.4164
Venus1.03558
Earth0.75978
Mars0.33086
Jupiter2.5438
Saturn6.64617
Uranus15.6017
Neptune27.7892

Observations

546 total observations over interval: 2003 09 04.07955 – 2023 05 14.294339
These data are available for download (format description).

Date (UT) J2000 RA J2000 Dec Magn Location Ref
2003 09 04.07955 02 24 09.97 +17 26 53.6 19.5 R 106 – Crni Vrh MPS 84168
2003 09 04.08543 02 24 10.26 +17 26 54.5 19.4 R 106 – Crni Vrh MPS 84168
2003 09 04.09131 02 24 10.56 +17 26 54.8 19.2 R 106 – Crni Vrh MPS 84168
2003 09 05.32822 02 25 13.85 +17 28 23.5 19.2   704 – Lincoln Laboratory ETS, New Mexico MPS 84168
2003 09 05.34208 02 25 14.53 +17 28 25.6 19.1   704 – Lincoln Laboratory ETS, New Mexico MPS 84168
2003 09 05.35644 02 25 15.18 +17 28 25.5 19.5   704 – Lincoln Laboratory ETS, New Mexico MPS 84168
2003 09 05.37066 02 25 15.86 +17 28 26.2 19.2   704 – Lincoln Laboratory ETS, New Mexico MPS 84168
2003 09 21.37339 02 34 06.44 +17 13 03.1 18.3 C 704 – Lincoln Laboratory ETS, New Mexico MPS 290167
2003 09 21.38540 02 34 06.63 +17 13 00.3 18.1 C 704 – Lincoln Laboratory ETS, New Mexico MPS 290167
2003 09 21.39768 02 34 06.75 +17 12 58.4 18.2 C 704 – Lincoln Laboratory ETS, New Mexico MPS 290167
2003 09 21.40984 02 34 06.87 +17 12 56.0 18.3 C 704 – Lincoln Laboratory ETS, New Mexico MPS 290167
2003 09 21.42195 02 34 07.05 +17 12 54.2 18.0 C 704 – Lincoln Laboratory ETS, New Mexico MPS 290167
2003 09 26.29526 02 34 54.35 +16 55 00.3 18.4   704 – Lincoln Laboratory ETS, New Mexico MPS 86972
2003 09 26.32047 02 34 54.42 +16 54 53.5 19.4   704 – Lincoln Laboratory ETS, New Mexico MPS 86972
2003 09 26.33318 02 34 54.42 +16 54 49.0 19.9   704 – Lincoln Laboratory ETS, New Mexico MPS 86972
2003 09 26.34592 02 34 54.38 +16 54 45.9 19.0   704 – Lincoln Laboratory ETS, New Mexico MPS 86972
2003 09 29.29566 02 34 55.66 +16 40 52.4 18.3   704 – Lincoln Laboratory ETS, New Mexico MPS 86972
2003 09 29.30987 02 34 55.56 +16 40 48.3 19.1   704 – Lincoln Laboratory ETS, New Mexico MPS 86972
2003 09 29.32312 02 34 55.47 +16 40 43.8 18.9   704 – Lincoln Laboratory ETS, New Mexico MPS 86972
2003 09 29.33637 02 34 55.40 +16 40 40.4 19.4   704 – Lincoln Laboratory ETS, New Mexico MPS 86972
2003 09 29.34961 02 34 55.28 +16 40 35.3 19.1   704 – Lincoln Laboratory ETS, New Mexico MPS 86972
2003 10 15.38303 02 29 38.91 +14 49 06.9 18.5 R 699 – Lowell Observatory-LONEOS MPS 88086
2003 10 15.40040 02 29 38.24 +14 48 57.7   699 – Lowell Observatory-LONEOS MPS 88086
2003 10 15.41781 02 29 37.61 +14 48 49.4   699 – Lowell Observatory-LONEOS MPS 88086
2003 10 15.43525 02 29 36.95 +14 48 39.5   699 – Lowell Observatory-LONEOS MPS 88086
2003 10 18.35842 02 27 51.83 +14 23 04.1 19.1   608 – Haleakala-AMOS MPS 88086
2003 10 18.36895 02 27 51.40 +14 22 58.6 18.8   608 – Haleakala-AMOS MPS 88086
2003 10 18.37983 02 27 50.93 +14 22 52.8 18.7   608 – Haleakala-AMOS MPS 88086
2003 10 21.17766 02 26 00.22 +13 57 19.3 18.3 V 691 – Steward Observatory, Kitt Peak-Spacewatch MPS 88086
2003 10 21.18023 02 26 00.11 +13 57 17.9 18.2 V 691 – Steward Observatory, Kitt Peak-Spacewatch MPS 88086
2003 10 21.20425 02 25 59.06 +13 57 04.7 18.2 V 691 – Steward Observatory, Kitt Peak-Spacewatch MPS 88086
2003 10 21.20719 02 25 58.93 +13 57 03.3 18.2 V 691 – Steward Observatory, Kitt Peak-Spacewatch MPS 88086
2003 10 21.23101 02 25 57.86 +13 56 50.4 18.6 V 691 – Steward Observatory, Kitt Peak-Spacewatch MPS 88086
2003 10 21.23358 02 25 57.76 +13 56 48.8 18.1 V 691 – Steward Observatory, Kitt Peak-Spacewatch MPS 88086
2003 10 21.28260 02 25 55.54 +13 56 21.5 18.4   704 – Lincoln Laboratory ETS, New Mexico MPS 88086
2003 10 21.29546 02 25 54.94 +13 56 14.1 18.6   704 – Lincoln Laboratory ETS, New Mexico MPS 88086
2003 10 21.30801 02 25 54.36 +13 56 07.7 17.8   704 – Lincoln Laboratory ETS, New Mexico MPS 88086
2003 10 21.33299 02 25 53.28 +13 55 53.9 18.4   704 – Lincoln Laboratory ETS, New Mexico MPS 88086
2003 10 23.19358 02 24 35.73 +13 38 28.4 18.0 R 699 – Lowell Observatory-LONEOS MPS 88086
2003 10 23.21359 02 24 34.79 +13 38 17.4   699 – Lowell Observatory-LONEOS MPS 88086
2003 10 23.23364 02 24 33.92 +13 38 05.7   699 – Lowell Observatory-LONEOS MPS 88086
2003 10 23.25364 02 24 32.99 +13 37 54.9   699 – Lowell Observatory-LONEOS MPS 88086
2003 10 23.32885 02 24 29.43 +13 37 15.8 19.1   704 – Lincoln Laboratory ETS, New Mexico MPS 88086
2003 10 23.34148 02 24 28.72 +13 37 06.5 19.6   704 – Lincoln Laboratory ETS, New Mexico MPS 88086
2003 10 23.35404 02 24 28.26 +13 36 59.1 19.2   704 – Lincoln Laboratory ETS, New Mexico MPS 88086
2003 10 23.36707 02 24 27.63 +13 36 51.7 18.7   704 – Lincoln Laboratory ETS, New Mexico MPS 88086
2003 10 23.37927 02 24 27.07 +13 36 43.9 18.8   704 – Lincoln Laboratory ETS, New Mexico MPS 88086
2003 10 25.57888 02 22 51.31 +13 15 53.4 18.5   608 – Haleakala-AMOS MPS 88086
2003 10 25.58914 02 22 50.83 +13 15 47.7 18.2   608 – Haleakala-AMOS MPS 88086
2003 10 25.59964 02 22 50.33 +13 15 41.5 18.2   608 – Haleakala-AMOS MPS 88086
2003 10 26.28295 02 22 21.01 +13 09 09.4 17.3 V 703 – Catalina Sky Survey MPS 88086
2003 10 26.29656 02 22 20.37 +13 09 01.4 17.3 V 703 – Catalina Sky Survey MPS 88086
2003 10 26.31010 02 22 19.63 +13 08 54.0 17.5 V 703 – Catalina Sky Survey MPS 88086
2003 10 26.32371 02 22 19.00 +13 08 46.5 17.4 V 703 – Catalina Sky Survey MPS 88086
2003 10 28.26118 02 20 53.00 +12 50 17.1 18.6   704 – Lincoln Laboratory ETS, New Mexico MPS 89433
2003 10 28.27641 02 20 52.31 +12 50 08.4 17.6   704 – Lincoln Laboratory ETS, New Mexico MPS 89433
2003 10 28.28845 02 20 51.73 +12 50 01.6 17.8   704 – Lincoln Laboratory ETS, New Mexico MPS 89433
2003 10 28.30094 02 20 51.11 +12 49 54.1 17.9   704 – Lincoln Laboratory ETS, New Mexico MPS 89433
2003 10 28.31377 02 20 50.49 +12 49 46.8 17.3   704 – Lincoln Laboratory ETS, New Mexico MPS 89433
2003 11 01.26176 02 17 55.23 +12 12 21.4 17.9   704 – Lincoln Laboratory ETS, New Mexico MPS 90487
2003 11 01.27445 02 17 54.59 +12 12 13.7 18.2   704 – Lincoln Laboratory ETS, New Mexico MPS 90487
2003 11 01.30044 02 17 53.38 +12 11 59.5 18.1   704 – Lincoln Laboratory ETS, New Mexico MPS 90487
2003 11 01.31271 02 17 52.79 +12 11 52.7 18.1   704 – Lincoln Laboratory ETS, New Mexico MPS 90487
2003 11 19.10260 02 07 17.03 +09 48 23.5 18.4 V 691 – Steward Observatory, Kitt Peak-Spacewatch MPS 90981
2003 11 19.13070 02 07 16.29 +09 48 13.2 18.4 V 691 – Steward Observatory, Kitt Peak-Spacewatch MPS 90981
2003 11 19.15774 02 07 15.57 +09 48 03.3 18.5 V 691 – Steward Observatory, Kitt Peak-Spacewatch MPS 90981
2003 11 19.16227 02 07 15.37 +09 48 01.5 17.9 V 703 – Catalina Sky Survey MPS 90981
2003 11 19.17693 02 07 14.96 +09 47 56.9 18.2 V 703 – Catalina Sky Survey MPS 90981
2003 11 19.19156 02 07 14.62 +09 47 51.5 17.8 V 703 – Catalina Sky Survey MPS 90981
2003 11 19.20623 02 07 14.18 +09 47 45.4 18.6 V 703 – Catalina Sky Survey MPS 90981
2003 11 21.19991 02 06 31.45 +09 35 55.4 17.8   704 – Lincoln Laboratory ETS, New Mexico MPS 90981
2003 11 21.21289 02 06 31.15 +09 35 50.8 18.2   704 – Lincoln Laboratory ETS, New Mexico MPS 90981
2003 11 21.22619 02 06 30.86 +09 35 46.5 18.5   704 – Lincoln Laboratory ETS, New Mexico MPS 90981
2003 11 21.23917 02 06 30.54 +09 35 42.1 18.4   704 – Lincoln Laboratory ETS, New Mexico MPS 90981
2003 11 21.25198 02 06 30.24 +09 35 37.5 18.3   704 – Lincoln Laboratory ETS, New Mexico MPS 90981
2003 11 21.27157 02 06 29.82 +09 35 30.2 18.4 R 699 – Lowell Observatory-LONEOS MPS 92737
2003 11 21.28472 02 06 29.53 +09 35 26.3   699 – Lowell Observatory-LONEOS MPS 92737
2003 11 21.29790 02 06 29.23 +09 35 21.3   699 – Lowell Observatory-LONEOS MPS 92737
2003 11 21.31108 02 06 28.97 +09 35 17.1   699 – Lowell Observatory-LONEOS MPS 92737
2003 11 22.15691 02 06 13.74 +09 30 36.7 18.0 R 695 – Kitt Peak MPS 93706
2003 11 22.23862 02 06 11.99 +09 30 10.2   695 – Kitt Peak MPS 93706
2003 11 23.16620 02 05 56.68 +09 25 17.2 17.7 R 695 – Kitt Peak MPS 93706
2003 11 23.23553 02 05 55.36 +09 24 56.0   695 – Kitt Peak MPS 93706
2003 11 24.17827 02 05 41.59 +09 20 13.6 18.7 R 695 – Kitt Peak MPS 93706
2003 11 24.24787 02 05 40.38 +09 19 53.8   695 – Kitt Peak MPS 93706
2003 11 26.19164 02 05 17.66 +09 11 00.6 18.8 R 699 – Lowell Observatory-LONEOS MPS 91824
2003 11 26.21145 02 05 17.38 +09 10 55.4   699 – Lowell Observatory-LONEOS MPS 91824
2003 11 26.23121 02 05 17.18 +09 10 51.5   699 – Lowell Observatory-LONEOS MPS 91824
2003 11 26.25091 02 05 16.91 +09 10 45.0   699 – Lowell Observatory-LONEOS MPS 91824
